GFSNGP_925_spd_132.txt.gz
Wind_Speed
6 8 5 8 6 5 0 8 3 11 18 13 15 18 17 18 18 19 18 19 19 19 18 27 31 34 31 30 24 22 25 26 26 22 18 14 11 6 5 12 16 21 26 25
3 9 6 3 2 4 5 3 6 13 11 15 9 11 19 17 18 20 19 18 18 17 19 22 29 29 28 26 28 27 26 26 25 25 23 21 17 14 10 3 11 17 21 20
3 2 3 1 4 5 3 2 4 4 10 12 12 13 15 16 16 17 19 17 17 17 16 24 27 26 25 26 25 26 25 26 27 27 25 24 22 18 17 13 4 9 13 15
2 4 1 4 5 2 4 3 5 9 13 14 15 4 9 14 15 16 17 17 16 17 23 26 26 24 24 26 25 24 24 24 26 25 24 25 23 22 20 16 12 6 5 13
1 1 1 3 2 2 1 1 9 10 13 13 15 8 0 14 14 14 15 16 18 21 22 22 24 24 23 23 25 25 25 25 25 25 25 27 26 24 22 17 13 10 6 1
1 1 4 4 4 3 4 3 8 12 13 14 13 10 6 14 13 15 19 19 20 19 20 23 26 23 22 23 24 24 23 22 22 23 22 23 23 22 20 17 13 11 8 6
2 3 5 1 6 1 2 3 9 8 11 10 5 4 8 10 13 15 17 19 20 19 19 22 25 23 22 23 23 21 21 23 26 27 24 23 21 19 18 16 15 15 14 13
2 1 5 1 2 2 1 4 5 7 7 10 10 9 8 10 11 16 17 18 20 19 20 22 24 23 21 22 21 20 21 23 25 27 26 25 23 22 21 19 18 17 15 16
5 4 2 2 4 4 1 4 2 6 7 7 9 9 9 9 10 15 18 17 18 19 19 21 24 23 21 22 21 21 20 22 24 25 29 28 27 26 24 22 20 18 17 17
1 1 3 5 4 3 1 2 2 3 5 4 6 6 7 6 8 11 13 15 17 18 18 20 23 23 22 24 22 18 18 19 20 22 23 28 26 24 24 23 20 19 17 16
4 4 1 4 3 3 2 4 2 3 4 5 4 5 6 7 8 11 13 15 17 18 17 20 24 22 24 25 21 16 17 18 19 19 20 19 27 29 25 28 24 18 19 19
5 3 3 1 5 4 5 6 6 4 5 8 3 3 5 5 10 11 14 16 17 17 17 20 22 23 25 25 21 17 16 17 18 17 18 19 18 18 26 28 26 25 24 23
3 4 3 3 5 3 3 4 8 6 6 6 6 6 7 6 10 13 13 14 15 15 16 18 20 22 22 20 23 22 18 13 14 15 16 19 19 17 14 17 21 28 26 24
2 3 3 2 2 3 6 6 8 7 9 8 9 8 7 6 8 13 15 15 15 16 18 20 20 21 19 17 19 18 17 16 16 16 16 16 17 17 16 16 16 21 21 22
5 5 3 6 6 7 7 6 4 5 6 8 9 8 7 7 6 8 12 15 15 18 20 21 22 22 19 17 16 15 15 14 14 15 17 18 18 19 20 21 21 21 23 23
8 8 6 6 4 5 5 6 5 6 7 8 9 10 8 7 6 8 11 13 16 17 20 21 21 21 18 15 15 14 13 13 14 15 17 17 17 18 20 21 22 22 24 23
7 3 2 1 1 3 5 5 6 6 7 7 7 7 7 6 8 11 14 13 11 13 17 18 19 18 16 15 13 13 12 11 10 14 16 14 16 17 17 20 20 22 22 20
10 8 7 5 3 3 4 7 8 8 8 5 6 8 8 9 8 11 14 15 16 16 20 18 18 16 14 12 11 9 9 9 10 14 13 14 15 15 16 17 17 18 20 20
10 9 8 8 7 7 6 7 8 7 9 8 7 8 7 8 9 11 13 17 20 17 23 20 18 15 14 11 10 10 8 9 10 12 13 12 14 14 15 16 17 18 18 19
10 10 9 9 9 8 7 7 6 8 10 8 4 9 11 12 12 13 14 15 17 17 19 18 17 16 14 11 9 7 7 7 9 9 10 11 12 13 14 15 16 16 17 18
8 10 10 10 9 8 8 8 6 8 9 9 7 10 10 10 11 13 17 13 21 20 18 17 17 17 15 12 8 8 7 6 7 8 9 10 11 12 12 13 13 13 14 15
10 10 10 9 8 7 7 8 8 9 10 9 7 8 11 13 14 12 13 15 18 19 18 19 18 17 15 12 8 8 8 7 7 7 8 8 9 10 10 10 11 11 11 11
10 9 8 7 7 6 5 5 6 8 10 10 8 9 10 10 12 14 13 17 16 16 17 17 17 15 14 13 12 10 9 7 7 6 7 7 8 9 8 9 9 9 9 10
9 6 4 5 4 3 4 3 3 3 4 5 5 6 8 7 7 9 10 12 14 15 16 17 16 15 14 14 14 13 13 11 9 8 7 7 7 6 6 7 7 7 7 7
8 9 11 6 4 3 4 5 2 5 4 3 4 6 5 5 7 8 9 11 13 14 14 15 15 14 14 14 14 13 13 12 11 9 8 7 7 6 5 5 5 5 5 6
10 10 9 8 6 6 7 5 5 7 4 3 2 3 5 6 5 6 7 9 11 12 13 14 15 14 13 12 12 12 11 11 11 10 9 8 7 7 6 6 5 4 4 4
12 10 8 7 5 5 4 6 4 2 5 3 4 4 4 5 5 6 6 7 8 10 12 12 13 13 13 12 11 11 10 10 9 9 8 7 6 6 6 5 5 4 4 3

GFSNGP_925_spd_135.txt.gz
Wind_Speed
6 9 5 9 10 5 5 8 6 7 14 12 18 15 13 15 19 20 21 19 19 19 18 26 31 33 37 37 39 37 34 27 29 29 23 18 17 12 7 5 15 23 25 27
3 8 9 8 7 6 6 6 9 8 11 16 15 14 13 18 19 21 20 18 19 18 19 22 27 33 36 31 33 29 29 28 28 28 23 23 20 17 13 8 7 16 22 24
2 2 3 5 7 5 4 5 3 4 6 14 16 16 9 15 18 20 20 19 17 17 21 25 28 27 26 27 27 30 28 27 30 29 29 26 23 19 16 13 9 6 9 15
2 2 3 2 4 3 3 3 2 7 10 11 14 15 5 15 16 18 19 20 19 21 22 24 25 27 25 25 25 25 26 27 29 27 24 22 20 20 19 16 14 8 8 2
2 2 1 2 4 1 2 3 3 8 11 12 14 12 1 15 15 15 16 21 23 24 23 23 25 24 24 25 25 26 27 27 26 23 21 21 26 23 22 17 13 14 11 9
3 2 4 1 4 1 5 3 2 7 10 13 13 11 10 16 16 17 20 21 24 23 22 23 26 25 24 24 24 25 23 21 21 20 20 20 19 19 16 15 16 16 15 14
5 3 2 3 1 7 2 1 6 6 8 9 7 5 9 12 14 18 20 22 22 21 21 23 25 25 24 25 27 24 21 21 23 23 20 20 18 19 18 15 15 18 19 19
3 3 4 3 4 3 2 1 3 5 6 6 7 8 11 11 12 17 19 20 21 20 20 21 23 24 24 25 23 21 21 22 23 25 23 22 21 22 21 17 18 18 17 20
5 2 3 3 2 5 3 2 1 4 7 7 7 7 9 10 10 13 17 18 19 18 19 21 23 24 24 24 21 19 20 20 21 21 24 23 24 24 23 22 20 18 18 17
2 2 3 7 6 5 3 3 2 1 4 6 7 7 8 8 9 13 14 17 18 18 18 20 21 22 21 20 18 17 18 17 16 18 19 23 23 23 26 25 21 19 19 18
2 3 4 5 6 7 4 2 1 2 4 6 5 5 6 7 11 12 13 14 15 16 18 19 20 19 21 23 21 18 17 16 16 16 16 16 22 26 25 29 26 20 18 19
3 1 1 2 8 7 6 5 4 3 4 7 5 4 6 6 9 10 12 14 13 14 15 17 17 17 18 21 21 19 17 16 16 15 14 14 13 14 20 23 25 26 24 22
2 3 3 8 7 6 5 5 6 6 4 4 5 5 6 5 7 8 11 12 14 15 15 15 16 17 19 19 19 18 16 15 14 14 14 15 15 14 12 13 18 22 24 25
3 5 4 1 3 6 9 8 7 6 5 6 5 5 5 4 4 8 11 13 14 15 17 17 17 20 21 20 19 18 16 17 13 13 13 13 14 14 14 15 16 18 19 21
6 6 5 10 9 9 8 5 4 4 5 6 7 6 6 6 5 8 10 13 13 16 19 19 20 21 20 19 17 17 14 13 13 12 15 15 13 14 14 15 16 16 17 18
8 9 8 7 7 6 5 5 4 4 5 5 6 8 7 6 6 8 10 12 12 14 18 18 17 19 19 18 16 15 12 13 12 11 11 12 13 13 13 13 15 17 17 15
8 5 5 4 4 5 6 6 6 5 5 6 7 7 6 4 7 9 12 13 12 12 15 15 18 18 16 14 12 10 9 10 11 11 10 11 12 12 12 13 14 15 16 18
11 10 9 7 5 5 6 7 7 7 7 6 6 7 8 8 6 8 12 13 15 17 19 20 19 16 15 12 11 10 9 9 9 10 10 11 11 11 11 12 12 14 13 17
11 11 10 10 8 8 7 7 7 7 7 6 8 9 9 9 9 10 12 16 17 17 22 19 18 16 15 13 11 10 9 9 9 9 9 11 11 11 11 12 12 13 12 13
11 10 11 11 10 9 8 7 7 8 9 8 10 11 11 11 12 13 12 14 15 15 15 16 16 17 16 13 11 9 7 7 8 8 9 9 10 10 11 13 12 12 12 12
10 10 10 10 10 11 11 10 10 10 10 10 12 10 10 12 11 13 13 13 17 19 16 17 17 18 16 13 11 10 9 8 9 9 10 9 10 11 11 11 11 10 9 9
11 11 11 10 10 10 11 11 12 12 12 12 11 10 11 12 13 12 16 13 14 18 16 16 18 17 15 13 11 10 9 9 8 8 9 9 9 9 9 9 9 9 9 9
13 11 10 10 9 8 7 7 9 10 11 10 10 10 9 8 9 11 12 15 15 16 16 18 17 16 14 15 14 13 12 10 9 9 9 9 9 9 8 9 10 9 8 8
12 10 10 8 7 6 5 4 5 6 7 8 8 8 8 7 8 10 11 12 14 15 16 17 16 15 15 15 15 14 13 12 10 9 9 9 9 9 9 8 9 8 8 8
9 10 9 6 6 5 6 5 4 5 5 6 7 8 8 8 7 8 10 11 13 14 15 16 16 15 15 14 14 14 13 13 11 10 9 9 8 8 8 7 7 6 7 7
11 10 10 9 8 8 7 5 5 6 4 4 5 6 7 8 8 8 9 10 12 13 14 15 15 15 14 14 13 13 12 12 11 11 10 9 9 9 8 7 6 6 5 6
13 12 10 8 8 7 6 5 4 4 5 4 4 4 5 6 7 8 8 9 10 12 12 13 14 15 14 13 12 11 11 11 11 10 9 9 8 8 7 7 6 5 5 5

GFSNGP_925_spd_138.txt.gz
Wind_Speed
5 4 6 8 10 11 11 13 6 12 16 12 14 16 17 17 19 22 21 21 18 17 17 28 30 30 27 30 33 32 31 29 26 23 23 17 15 13 8 2 8 14 16 15
5 8 10 12 11 11 14 13 15 16 14 10 13 14 16 14 20 20 21 21 19 17 21 24 27 31 35 31 30 25 32 33 28 27 34 26 22 16 13 10 6 3 8 11
3 6 5 8 17 14 4 7 7 6 6 13 16 16 12 13 18 19 20 21 19 17 22 27 31 31 30 31 33 36 28 23 28 38 32 31 25 20 19 14 12 10 10 5
5 6 7 3 3 10 8 7 6 7 7 8 12 15 4 12 15 18 19 19 19 23 25 26 27 29 26 26 25 21 23 26 28 21 22 26 24 22 20 17 14 14 14 15
4 10 2 4 8 6 4 1 5 5 7 8 11 15 7 15 13 15 16 19 21 22 23 25 28 29 27 27 28 30 30 30 28 25 23 23 24 24 21 18 19 15 16 16
5 4 5 5 8 2 4 4 6 2 5 6 9 6 7 14 13 15 18 19 21 22 21 23 26 26 24 24 24 24 25 25 25 23 22 22 21 20 18 15 18 19 20 20
7 6 2 5 5 6 5 5 3 2 3 4 4 4 9 11 12 15 17 19 20 20 21 22 24 23 21 23 24 22 20 20 22 23 20 20 17 19 17 16 17 19 20 21
7 8 8 9 7 4 5 5 3 2 3 4 4 7 8 9 11 14 16 17 18 18 19 21 23 23 20 20 20 19 17 17 19 21 21 21 20 19 19 18 19 18 17 19
6 1 8 7 1 5 3 2 2 2 3 4 4 5 7 8 9 11 14 16 17 17 18 19 21 21 21 22 19 17 16 16 17 18 21 21 22 23 23 22 21 19 20 19
6 4 5 5 5 4 3 2 2 2 3 4 5 5 7 7 9 11 13 14 16 15 16 19 20 20 21 23 21 17 16 16 15 17 17 21 21 23 24 25 20 20 20 19
2 6 4 4 5 5 4 2 3 1 4 5 5 5 6 6 8 10 12 13 13 14 16 17 19 20 20 21 21 17 16 17 16 16 16 15 17 21 21 25 26 21 18 17
2 5 2 3 7 5 4 3 3 2 3 6 6 4 7 5 7 9 11 13 14 14 15 17 17 18 19 20 20 19 16 16 16 15 15 15 14 12 18 20 23 24 23 20
4 5 8 9 7 5 5 4 4 5 5 5 5 5 5 5 6 7 9 12 13 14 14 15 16 17 18 18 18 17 17 15 15 16 16 16 16 15 14 12 18 24 22 23
9 9 7 5 4 5 7 6 4 3 4 5 5 5 4 3 3 7 10 10 11 12 14 14 15 16 18 17 16 15 14 14 13 13 13 13 14 14 13 13 13 16 20 22
7 6 8 12 9 7 5 3 1 3 4 5 5 6 6 5 6 8 9 11 11 10 13 14 14 16 17 15 13 12 12 11 10 10 12 12 13 13 13 13 13 13 13 16
10 10 10 8 7 5 3 2 1 3 3 4 5 5 5 5 5 7 10 13 13 14 15 15 14 16 16 15 12 9 9 11 10 9 10 11 12 12 12 13 14 15 16 16
11 8 7 6 4 3 4 4 4 4 3 5 5 6 5 4 6 9 11 12 10 10 12 14 16 17 15 14 12 10 9 9 9 9 10 10 10 11 11 11 12 13 14 15
10 9 7 5 5 5 5 5 5 5 5 5 5 6 8 9 8 9 11 11 11 10 15 16 17 16 15 14 11 9 9 8 8 8 9 10 10 10 10 11 11 11 11 13
11 11 10 9 8 8 7 7 6 5 4 5 8 8 8 8 8 8 10 12 14 14 18 18 18 16 15 14 11 9 8 7 7 8 8 8 9 10 10 9 10 10 10 11
12 12 12 12 10 10 9 7 6 7 7 8 8 7 7 7 8 8 7 10 13 14 14 16 16 15 15 14 12 9 7 7 7 8 9 8 8 9 9 10 10 10 11 11
11 12 12 13 12 10 10 8 8 9 8 7 8 7 7 7 9 10 9 9 14 16 14 14 15 16 13 13 10 9 8 8 8 8 8 8 8 9 9 9 9 8 8 8
12 12 12 12 12 11 9 9 10 10 9 8 8 6 4 7 4 5 10 10 11 15 13 14 15 15 14 12 10 10 9 8 8 8 8 8 8 8 8 8 8 8 7 7
12 12 12 11 11 11 9 9 9 9 8 7 6 6 6 7 8 8 8 12 11 12 11 12 14 13 13 11 11 10 10 9 8 7 7 7 7 7 7 7 7 6 6 5
13 12 11 9 9 8 8 6 6 7 7 6 7 6 5 4 5 7 6 8 11 10 11 13 13 13 12 10 10 10 10 9 8 7 7 7 7 6 6 6 6 6 5 5
13 12 10 8 8 6 7 7 6 5 5 5 5 5 5 5 5 4 5 7 10 9 9 12 13 12 11 10 10 10 9 10 9 8 8 7 7 7 6 6 5 5 5 4
14 12 9 7 7 8 7 7 6 5 4 4 4 4 4 4 4 5 5 6 7 8 9 10 12 11 10 10 9 9 9 8 8 8 8 7 7 7 6 6 5 5 4 3
13 12 11 10 8 7 6 6 7 6 5 4 4 3 3 3 4 5 5 5 6 7 8 8 9 10 10 10 9 9 8 8 9 8 7 7 7 7 6 5 4 4 4 3

GFSNGP_925_spd_141.txt.gz
Wind_Speed
4 4 6 11 12 16 12 13 10 12 17 13 10 11 13 13 16 18 18 20 18 15 16 26 31 36 37 38 38 37 34 36 36 35 32 29 28 28 25 19 14 7 9 13
9 8 7 9 11 13 16 15 16 18 17 8 9 11 13 11 15 17 17 18 18 16 18 21 26 29 31 33 34 34 30 31 33 35 33 29 25 29 24 20 16 9 8 2
9 7 7 9 17 16 7 11 12 13 9 13 13 12 12 9 14 16 16 16 17 16 18 21 24 28 27 30 32 29 31 31 32 32 33 28 22 30 23 20 17 15 14 9
5 7 8 2 3 12 16 9 12 10 5 8 11 12 3 6 12 14 16 16 15 19 22 24 24 26 26 25 26 27 30 31 35 40 29 23 26 35 22 21 17 15 12 11
6 11 4 3 5 5 9 9 9 5 4 6 10 14 6 9 12 12 14 15 18 19 19 22 24 25 25 24 25 25 25 26 28 26 24 27 35 24 23 22 19 20 19 15
8 10 7 8 12 4 2 8 8 5 2 4 8 6 5 14 13 13 16 16 18 19 19 19 22 23 22 23 24 25 24 24 22 23 25 25 23 23 21 20 21 19 23 24
8 8 3 9 10 6 5 4 6 6 1 1 3 4 8 11 12 14 15 17 17 17 18 20 22 23 22 24 25 25 23 22 23 24 21 22 22 25 24 21 23 23 22 21
11 10 11 12 9 5 6 6 6 5 3 2 3 6 7 9 10 13 15 17 18 17 18 20 22 23 23 25 28 26 24 23 23 23 23 24 24 23 22 20 19 18 19 20
6 4 10 12 7 7 4 4 5 3 5 3 3 5 8 9 9 12 14 16 17 17 16 18 21 22 23 24 26 25 23 22 21 22 22 24 24 25 23 22 20 20 20 20
6 8 10 8 7 6 5 5 6 3 4 2 3 4 7 8 9 11 13 14 16 17 17 18 20 21 22 24 24 22 21 21 20 20 20 19 23 22 23 26 23 21 19 19
5 8 8 6 6 7 7 4 8 2 4 5 5 4 7 7 9 11 11 14 15 15 16 18 19 19 21 23 24 23 20 19 20 18 19 16 14 21 22 23 25 23 23 18
3 10 2 10 8 6 6 5 4 2 3 6 7 5 8 6 8 11 13 14 15 16 17 18 18 18 19 20 20 21 20 20 20 18 17 16 15 8 16 21 24 23 23 22
4 7 8 10 8 7 8 6 5 6 6 6 7 6 5 7 7 8 11 13 14 15 16 17 17 17 18 18 18 17 16 16 16 17 16 15 15 14 13 6 17 24 22 24
12 12 8 6 4 8 8 7 4 3 3 4 5 4 5 5 4 8 10 12 13 13 15 16 17 17 20 19 18 15 15 13 13 13 15 16 15 15 13 12 12 14 19 23
7 7 10 11 9 6 6 4 2 2 4 4 5 6 7 6 7 8 9 12 13 12 15 16 17 19 21 21 19 15 13 15 15 11 11 11 11 10 10 11 12 14 15 18
9 10 10 8 8 6 4 1 1 3 3 4 5 6 5 5 6 9 11 13 13 14 15 16 18 20 20 20 19 14 13 14 14 13 13 13 13 13 13 14 14 16 17 17
10 8 9 7 5 3 4 5 5 5 5 7 7 7 7 6 7 10 12 12 10 9 14 16 19 20 18 18 16 14 13 13 13 13 14 14 14 14 14 14 14 15 16 18
7 7 5 5 6 6 6 6 7 7 8 7 7 8 9 9 9 9 11 12 12 10 16 17 18 18 16 17 16 13 12 12 12 12 12 13 14 13 13 14 15 15 14 15
11 11 11 10 8 9 8 9 8 8 7 7 7 7 7 8 9 9 8 12 14 14 17 18 18 16 17 17 17 12 11 11 11 11 12 12 12 12 13 13 13 13 13 14
14 14 14 13 12 11 11 9 9 9 8 7 6 6 7 9 9 9 8 10 14 13 15 16 17 16 17 16 17 12 11 11 11 11 12 11 12 12 11 11 12 12 12 12
14 14 14 13 13 12 10 8 9 9 7 7 6 6 6 5 6 11 11 11 15 16 15 15 16 18 16 17 15 13 12 11 11 11 11 11 11 11 11 11 11 11 11 11
14 14 14 14 13 13 10 10 10 8 7 7 5 1 3 5 1 5 11 11 13 16 14 14 16 18 16 15 13 14 13 13 12 11 11 11 11 10 10 10 10 10 10 9
15 15 14 13 13 13 11 10 9 8 7 6 5 6 6 6 8 9 8 12 12 12 12 14 16 16 16 14 14 14 13 13 12 11 10 10 10 10 9 10 10 10 9 9
16 15 14 13 13 11 10 8 7 6 6 5 5 5 6 4 4 6 6 8 11 11 10 14 14 14 13 13 13 13 13 13 13 12 11 11 10 10 10 10 10 9 9 8
16 15 14 12 10 8 10 8 7 5 4 4 3 3 3 4 5 5 6 7 9 10 10 12 13 13 12 12 12 11 11 12 12 12 11 11 11 10 10 10 9 9 9 9
16 13 12 10 6 9 9 9 7 6 5 4 4 2 2 3 3 3 3 5 6 8 9 10 11 11 11 11 11 11 10 10 11 11 11 10 11 11 11 10 10 9 9 8
12 11 10 9 8 8 7 7 7 6 4 3 4 2 2 1 2 3 3 5 6 7 7 8 8 10 10 10 10 10 10 9 10 9 9 9 9 9 10 10 9 9 8 7

GFSNGP_925_spd_147.txt.gz
Wind_Speed
4 9 13 7 8 16 10 10 8 8 7 9 7 6 6 3 1 6 10 10 8 7 11 19 20 24 28 26 30 32 31 32 34 37 37 38 37 32 30 33 31 29 21 18
13 14 13 12 10 11 14 9 11 8 3 8 7 7 6 5 9 10 10 10 9 9 14 15 20 26 29 25 29 32 30 30 32 37 37 37 37 36 32 32 34 32 29 21
6 14 17 14 8 7 5 4 7 9 5 8 5 6 5 5 7 7 8 10 9 10 15 17 22 27 28 26 29 30 30 29 32 35 34 35 35 35 33 31 30 31 32 28
1 4 15 5 11 10 12 9 6 11 9 9 7 6 6 6 6 6 7 8 8 16 17 19 24 26 28 27 28 29 30 29 29 33 33 34 33 34 33 30 30 29 29 35
6 11 10 3 4 5 4 6 9 11 10 9 9 7 7 7 5 4 6 9 13 20 19 22 24 26 27 28 29 29 29 30 27 29 33 34 34 32 33 29 31 31 32 31
4 11 13 5 16 5 2 3 7 14 11 8 2 3 1 4 5 6 12 14 17 21 20 22 25 26 25 28 30 32 30 29 27 25 27 30 30 30 30 27 25 25 27 28
6 1 5 4 6 4 5 5 9 10 9 7 4 4 4 3 5 14 15 16 19 20 19 22 26 26 24 27 30 33 29 28 27 27 24 26 28 27 27 24 25 28 26 29
3 5 8 5 5 3 9 8 9 9 11 12 8 6 5 6 8 14 14 17 19 18 19 22 25 24 23 25 30 30 28 28 28 27 23 23 25 27 26 26 25 26 25 25
7 4 1 6 10 11 13 11 10 12 11 10 8 5 5 6 9 14 17 18 20 19 20 21 23 23 23 26 28 29 27 27 27 27 25 27 25 27 26 26 26 23 23 24
3 6 14 10 11 16 14 14 13 13 10 9 8 6 6 8 10 14 17 18 18 19 19 20 22 22 23 26 27 24 25 26 26 27 28 27 26 25 29 30 27 26 26 25
3 13 13 12 15 16 16 14 14 15 13 11 9 9 9 9 12 14 15 17 17 16 17 19 20 21 25 26 28 23 21 23 23 24 26 26 22 22 22 27 29 27 28 24
4 10 9 12 11 16 15 13 12 15 13 13 12 8 13 11 12 14 14 14 13 14 16 18 20 21 26 27 28 24 18 22 23 21 22 22 23 20 18 25 28 30 30 30
5 17 18 17 15 16 14 13 13 13 15 10 14 14 13 14 15 14 16 15 14 16 18 20 22 24 27 28 28 24 19 22 23 20 20 20 20 19 17 22 25 28 28 29
17 18 12 8 8 12 14 14 19 17 19 18 17 17 16 15 14 15 15 15 13 18 20 22 23 26 27 27 25 24 21 24 22 21 22 21 20 19 16 18 17 22 27 26
13 14 14 13 13 9 13 10 12 11 15 17 18 16 16 15 13 13 14 14 13 20 22 23 25 27 27 26 26 21 20 22 23 21 23 21 21 19 18 16 20 20 22 24
15 16 13 13 10 9 8 10 13 12 16 16 15 15 15 17 15 15 15 18 17 19 21 24 25 26 26 26 26 21 20 22 21 20 20 21 21 18 19 19 18 20 22 24
16 12 11 10 9 13 13 13 16 16 17 16 14 14 14 14 13 14 17 16 15 20 21 23 23 23 25 28 24 21 20 18 21 20 21 20 22 22 20 19 18 19 21 25
11 9 10 15 13 13 13 18 19 18 16 15 15 15 15 14 13 13 15 14 14 18 21 22 21 21 25 27 25 22 22 20 19 19 20 21 21 21 22 20 21 19 19 21
21 17 20 20 22 21 17 17 18 19 19 17 16 15 13 11 11 12 14 19 19 18 19 22 19 21 25 26 24 24 23 22 21 22 21 21 22 21 21 22 21 22 21 20
21 23 25 23 22 24 20 21 21 20 18 17 15 15 15 15 16 17 18 21 19 17 16 18 19 22 23 23 22 23 23 23 22 23 23 22 22 22 22 21 21 21 21 21
16 19 20 21 21 22 22 22 22 20 16 13 14 11 10 13 15 14 15 12 16 14 17 16 20 21 21 21 22 22 23 23 23 23 22 22 21 23 22 22 22 21 19 19
16 16 19 21 20 21 21 19 19 17 16 14 9 5 6 12 14 17 15 12 10 11 17 16 18 18 19 19 20 22 22 23 23 22 22 21 21 21 21 21 20 20 18 17
17 20 23 23 20 23 21 18 17 18 14 12 11 12 13 13 10 10 11 12 11 10 17 15 16 17 17 18 19 19 20 21 21 21 20 20 20 20 20 20 20 18 17 17
21 22 23 24 25 24 20 17 15 13 12 11 11 12 11 16 12 9 8 8 9 8 13 16 13 15 15 16 16 17 19 18 19 19 18 18 18 18 19 19 18 17 17 16
21 22 25 24 20 18 20 18 16 15 13 12 13 10 8 8 6 8 8 6 8 8 8 12 14 12 14 15 15 15 16 17 16 17 17 17 17 17 17 16 16 15 14 13
20 18 21 21 17 23 21 19 17 16 15 14 13 10 9 7 7 6 5 6 6 7 7 8 10 12 12 12 13 13 13 14 14 14 14 15 15 15 15 15 14 14 13 13
19 20 19 16 20 22 21 20 15 18 19 19 15 12 9 6 7 5 5 4 4 6 7 7 8 9 9 10 10 10 11 11 12 12 12 12 13 13 13 14 12 9 10 11

GFSNGP_925_spd_153.txt.gz
Wind_Speed
3 6 6 6 5 6 7 14 8 22 16 14 17 16 12 7 6 5 5 4 1 2 2 9 15 22 24 26 27 28 29 26 28 30 32 35 34 34 33 31 31 32 30 31
7 3 6 6 8 9 11 14 13 19 25 3 12 8 10 10 9 6 5 4 2 4 4 12 18 19 23 26 27 27 27 26 27 29 31 34 34 34 33 32 31 31 32 32
7 6 2 4 21 13 9 10 15 17 8 7 6 11 11 9 7 6 7 5 3 4 6 12 16 20 22 23 24 24 23 25 26 29 29 34 34 33 33 34 32 32 33 33
2 3 7 7 6 16 21 23 19 7 6 16 11 8 11 6 5 7 7 5 4 6 9 15 17 19 18 19 21 22 22 24 25 28 27 33 33 34 34 34 32 32 31 33
3 6 6 7 3 6 8 9 12 7 10 13 15 11 6 4 5 8 7 7 10 10 11 13 16 18 17 19 18 19 22 25 25 27 27 29 32 33 33 33 33 33 32 32
3 4 6 4 5 4 5 8 4 9 15 18 14 6 4 9 12 11 11 11 9 8 10 13 15 16 18 20 18 20 24 26 26 25 26 25 31 30 32 31 29 30 31 30
4 4 6 6 7 1 6 5 4 11 13 15 5 2 12 14 13 14 11 10 9 11 13 14 15 16 18 19 18 21 25 25 25 24 23 23 30 27 30 31 29 30 30 29
2 4 8 1 1 6 5 7 10 13 12 14 13 14 14 13 11 12 11 12 12 11 12 14 15 16 18 16 20 22 25 24 25 23 23 24 26 26 28 30 28 30 31 31
7 5 3 3 1 7 7 14 7 14 13 15 14 13 11 10 10 11 11 10 11 11 12 14 15 16 17 18 20 22 22 24 25 21 23 23 24 24 25 28 28 29 29 28
5 2 3 10 12 12 11 15 14 15 14 14 14 11 11 9 8 9 10 11 12 14 12 13 17 16 15 16 20 22 21 23 23 21 21 23 22 22 23 26 27 27 29 28
4 8 11 8 12 16 17 17 14 13 12 14 14 10 10 9 10 11 11 13 13 10 10 13 16 17 17 18 20 20 21 21 22 20 21 21 21 23 23 25 28 29 29 29
5 11 7 10 13 17 17 14 13 15 13 13 16 12 16 11 11 11 11 10 11 11 11 14 16 18 19 20 21 21 19 20 21 21 21 21 21 20 25 23 25 27 29 32
6 6 11 15 12 13 15 13 12 12 16 14 16 18 17 14 12 13 13 12 12 12 13 15 17 20 20 20 20 21 20 21 21 22 21 21 22 22 20 28 26 28 31 31
20 19 11 8 7 13 17 20 22 20 19 19 19 18 17 15 14 16 15 15 15 15 16 18 19 21 20 19 17 22 23 22 21 21 22 22 22 21 21 21 23 29 32 31
16 9 13 16 17 15 21 21 15 12 15 16 17 16 14 13 14 13 13 13 15 17 18 19 20 20 19 18 17 19 22 23 23 22 22 23 22 22 22 21 23 24 28 35
15 18 19 17 17 15 14 13 15 12 12 15 15 14 14 15 14 12 11 14 17 17 17 18 18 16 17 17 17 19 19 20 22 22 21 21 22 22 22 22 22 23 26 28
22 15 16 16 15 14 12 10 13 13 16 15 16 16 15 15 15 14 14 15 15 15 15 16 16 17 16 15 16 16 18 19 20 22 22 21 20 21 21 22 21 22 23 27
12 15 13 17 16 14 12 15 17 18 16 18 18 20 18 17 16 15 14 12 14 16 16 14 14 16 16 15 14 16 17 18 19 20 22 24 23 24 24 21 22 21 22 25
19 15 19 19 20 19 18 17 16 19 22 24 24 22 21 18 16 16 13 14 14 16 15 13 13 15 16 14 13 15 16 17 19 20 20 21 22 24 25 24 23 26 23 24
16 21 22 21 19 23 19 22 25 25 24 24 24 23 21 18 15 15 14 15 12 9 10 11 12 14 15 14 13 14 15 16 16 17 20 21 21 21 22 23 24 25 26 26
13 19 19 19 19 22 24 27 27 24 24 24 23 25 23 17 13 12 13 14 11 9 10 11 12 12 12 13 13 13 13 15 17 16 16 18 19 19 19 21 22 23 24 24
16 15 18 20 20 21 25 25 27 28 25 21 21 23 20 15 14 12 12 13 10 8 10 11 12 11 12 13 13 13 13 13 14 15 16 16 16 16 17 18 19 18 20 22
16 18 21 21 21 25 24 26 27 27 25 23 24 23 21 16 12 15 13 9 9 8 7 9 10 10 10 12 14 14 13 13 13 13 14 14 14 14 15 15 16 16 17 18
19 20 21 25 29 25 20 22 23 22 19 18 18 18 18 15 8 7 10 10 8 8 8 8 8 9 10 12 12 13 13 13 12 12 11 12 12 12 12 13 13 15 16 17
20 23 24 24 18 15 25 24 22 19 18 18 17 17 13 11 7 12 10 9 7 6 6 6 7 7 8 9 9 10 11 12 12 12 13 14 13 13 13 11 9 12 13 15
21 18 18 19 20 23 26 25 22 22 20 20 19 17 14 9 12 13 10 7 5 4 4 4 3 4 5 5 6 6 8 10 10 8 10 12 13 14 13 10 11 12 14 14
18 19 19 16 19 23 26 24 24 24 23 21 18 17 15 14 12 11 10 8 5 4 3 3 1 1 3 4 5 5 6 9 9 9 8 10 12 14 13 13 13 14 15 15

GFSNGP_925_spd_156.txt.gz
Wind_Speed
12 9 9 6 7 15 13 13 8 15 12 15 11 14 15 12 11 10 9 6 4 3 3 9 15 18 20 21 24 25 24 21 24 25 27 27 32 32 31 29 29 30 31 31
8 19 12 7 9 7 10 11 10 14 21 18 7 11 11 12 12 9 8 6 4 4 5 11 14 17 20 22 23 23 20 23 23 25 27 27 31 32 30 29 30 30 31 31
10 9 6 6 18 12 6 6 9 13 24 5 3 11 13 13 12 11 9 6 5 4 5 10 14 17 19 21 23 21 21 23 23 26 27 28 30 31 30 30 30 31 31 33
5 1 8 5 2 12 16 20 14 14 2 7 6 6 10 10 10 10 9 7 6 5 4 8 12 17 20 21 20 19 21 22 24 26 26 28 30 30 28 31 30 30 31 33
4 4 5 8 5 7 8 13 15 15 5 13 16 13 8 8 9 10 7 9 9 5 5 9 13 16 19 20 16 18 20 23 25 25 26 27 29 29 28 31 31 31 31 32
3 4 6 5 4 1 4 7 6 5 14 18 14 7 4 10 12 11 12 11 7 4 8 11 15 16 18 18 17 20 23 24 26 23 23 26 29 27 28 30 28 30 31 30
9 5 6 6 6 2 4 6 1 5 11 11 4 3 16 14 13 14 12 10 6 6 8 11 14 16 17 15 19 21 24 25 23 22 23 26 26 27 28 29 28 30 30 30
5 5 8 5 1 6 3 3 7 11 12 17 18 16 16 13 12 12 12 8 5 5 8 12 14 16 15 15 20 21 23 23 22 23 23 26 27 26 26 28 28 30 32 31
7 5 2 3 3 3 4 7 6 15 14 18 17 15 13 11 10 11 11 7 6 7 8 11 15 15 12 16 19 22 23 22 22 21 22 25 26 27 26 27 28 29 30 30
2 2 2 6 8 8 9 13 13 15 16 15 17 13 12 10 7 10 9 10 7 6 9 13 14 13 13 16 19 19 21 21 21 19 24 25 23 26 25 27 28 29 30 30
2 2 8 7 8 13 17 16 16 15 13 15 16 12 12 10 10 11 11 9 7 7 8 13 17 18 18 19 19 20 17 19 20 19 22 21 24 23 26 27 30 30 29 31
6 10 3 6 10 11 16 14 11 18 14 13 16 13 15 10 11 12 11 8 6 8 12 14 16 18 19 21 19 20 16 18 21 19 20 22 22 22 24 26 28 30 32 33
5 9 8 14 10 12 14 13 13 15 16 15 16 18 16 15 14 14 11 8 9 10 12 13 15 17 17 18 21 23 21 19 18 20 21 21 23 24 23 27 26 31 34 35
18 18 12 7 7 11 15 19 23 21 19 19 20 18 18 17 16 16 14 12 12 12 14 14 15 18 18 18 18 21 23 24 23 22 23 22 22 23 23 23 25 30 33 35
12 7 14 16 15 14 20 21 16 13 15 16 17 18 17 17 14 12 12 10 10 12 14 15 15 16 18 16 18 19 22 24 24 25 25 23 23 22 23 23 24 25 30 34
13 18 18 18 17 15 15 13 15 14 12 16 15 15 16 18 15 12 10 9 12 13 13 15 15 14 13 16 17 19 20 22 24 25 25 23 23 23 23 24 23 25 27 31
19 10 15 15 16 15 12 10 12 13 17 16 17 19 19 17 16 13 12 12 12 12 12 13 14 14 13 14 15 17 19 21 22 24 26 25 22 22 22 22 23 24 25 29
10 12 13 20 18 15 12 15 17 19 17 20 21 22 20 19 17 15 12 11 11 12 12 11 11 11 13 13 14 15 17 19 22 23 24 25 25 24 26 23 24 25 25 29
15 16 18 19 20 19 18 17 17 21 26 27 26 23 22 20 18 15 12 12 13 12 11 10 10 11 12 12 12 13 15 16 19 21 22 23 24 26 27 27 26 29 28 28
15 20 22 21 20 23 19 22 25 25 26 27 28 26 22 20 18 15 12 13 10 8 7 7 8 11 11 11 11 12 13 15 16 18 20 21 22 23 24 25 26 28 31 31
13 18 19 19 18 21 25 27 28 24 27 30 29 26 24 20 17 14 14 12 9 7 6 7 8 10 11 10 9 10 11 13 15 16 18 19 19 21 22 23 23 25 27 28
15 15 17 20 20 20 24 25 28 30 29 27 26 26 23 19 16 14 10 11 9 7 6 8 8 9 10 10 10 10 11 12 14 15 16 17 18 19 20 21 22 23 24 25
15 17 20 20 20 24 24 25 28 30 28 27 29 25 20 19 19 19 12 10 9 7 7 7 7 7 9 10 11 11 11 12 13 14 14 15 16 17 18 17 19 20 23 25
19 19 19 24 29 25 18 24 27 26 25 24 24 21 21 20 16 10 10 11 9 8 8 7 6 7 7 9 10 11 11 11 11 12 13 14 15 16 16 15 17 18 20 22
19 21 22 22 18 14 24 27 25 23 22 21 20 19 16 11 6 15 16 12 9 7 6 6 5 4 4 5 6 7 8 10 9 9 11 14 15 16 16 16 17 19 20 21
19 15 16 17 18 23 26 26 20 23 22 21 19 19 16 13 7 15 14 11 9 7 6 4 3 1 1 3 4 5 5 8 9 9 9 11 13 15 16 16 18 19 21 21
17 19 19 16 20 24 26 24 26 24 23 22 21 20 16 13 14 14 11 10 8 8 7 6 4 2 2 4 5 5 5 7 8 9 9 10 12 14 15 18 20 22 21 21